Location: Shenandoah County Park
(38.9356°N, 78.4524°W)
Time: 17:33:19
(UTC-04:00)

Explorer 11/Cluster Stage 4 - Pass Details

Date: 01 March 2024
Orbit: 465 x 1219 km, 28.8° (Epoch: 21 April)

Event Time Altitude Azimuth Distance (km) Brightness Sun altitude
Rises 23:25:28 0° 242° (WSW) 3,889 - -55.3°
Reaches altitude 10° 23:28:21 10° 234° (SW) 3,015 - -55.6°
Maximum altitude 23:35:14 37° 171° (S) 1,789 - -56.1°
Drops below altitude 10° 23:42:26 10° 108° (ESE) 3,162 - -56.6°
Sets 23:45:32 0° 100° (E) 4,098 - -56.8°
